x

9442396 - La Push, Wa (lapw1) Weather Station

2:36 - Wed 18th Jan 2017 All times are PST. -8 hours from GMT.

  • Wind
    20mph, 25mph gusts
  • Sea Temp 41°f
  • Ar Temp 48°f
  • Sea Pressure 993.1mb
  • 9442396 - La Push, Wa
  • 9442396 - La Push, Wa

More Historic Weather Station data

Upgrade to MSW Pro to gain access to the past 30 days of data for over 8000 Wavebouys and Weather Stations around the globe.

Join Pro

Comparision Forecast

View Surf forecast
   
Qua 01/18 2:36 20 25 mph 993.1mb 41f 48f
2:30 17 23 mph 993.2mb 41f 48f
2:24 15 24 mph 993.2mb 41f 48f
2:18 15 25 mph 993.3mb 41f 48f
2:12 17 25 mph 993.5mb 41f 48f
2:06 15 29 mph 993.5mb 41f 48f
2:00 14 26 mph 993.6mb 41f 48f
1:36 17 29 mph 993.7mb 41f 49f
1:30 17 30 mph 993.7mb 41f 49f
1:24 17 31 mph 993.7mb 41f 49f
1:18 17 29 mph 993.6mb 41f 48f
1:12 18 31 mph 993.6mb 41f 49f
1:06 18 29 mph 993.7mb 41f 48f
1:00 16 24 mph 993.7mb 41f 49f
12:36 14 25 mph 994.1mb 41f 49f
12:30 16 30 mph 994.1mb 42f 49f
12:24 20 28 mph 994.2mb 41f 49f
12:18 18 31 mph 994.3mb 41f 49f
12:12 21 31 mph 994.4mb 42f 49f
12:06 21 31 mph 994.4mb 42f 49f
12:00 22 36 mph 994.5mb 41f 49f
Ter 01/17 11:36 18 36 mph 994.7mb 42f 49f
11:30 15 26 mph 994.6mb 42f 49f
11:24 17 28 mph 994.6mb 42f 49f
11:18 20 32 mph 994.5mb 42f 49f
11:12 16 33 mph 994.4mb 42f 49f
11:06 17 29 mph 994.3mb 42f 49f
11:00 20 29 mph 994.5mb 42f 49f
10:36 17 26 mph 994.8mb 42f 49f
10:30 20 33 mph 994.8mb 42f 49f
10:24 21 32 mph 994.7mb 43f 49f
10:18 16 25 mph 994.6mb 43f 49f
10:12 21 31 mph 994.7mb 43f 49f
10:06 20 28 mph - - 49f
10:00 13 29 mph 994.7mb 43f 49f
9:36 13 30 mph 994.5mb 43f 48f
9:30 17 31 mph 994.5mb 42f 49f
9:24 14 24 mph 994.3mb 42f 49f
9:18 16 28 mph 993.7mb 43f 49f
9:12 20 33 mph 994.1mb 43f 49f
9:06 14 28 mph 994.2mb 42f 49f
9:00 17 36 mph 994.2mb 42f 49f
8:36 16 32 mph 994.2mb 42f 48f
8:30 17 33 mph 994.1mb 42f 48f
8:24 23 39 mph 994mb 42f 48f
8:18 21 39 mph 993.6mb 42f 48f
8:12 20 44 mph 993.2mb 42f 48f
8:06 22 36 mph 993.1mb 42f 48f
8:00 23 40 mph 993.2mb 42f 48f
7:36 23 34 mph 993.7mb 42f 48f
7:30 23 36 mph 993.8mb 42f 48f
7:24 23 37 mph 993.9mb 42f 48f
7:18 24 33 mph 993.9mb 42f 48f
7:12 26 39 mph 993.7mb 42f 48f
7:06 18 36 mph 993.8mb 42f 48f
7:00 20 33 mph 993.8mb 42f 48f
6:36 18 41 mph 993.5mb 43f 48f
6:30 24 40 mph 993.5mb 43f 48f
6:24 25 38 mph 993.6mb 43f 48f
6:18 23 43 mph 993.7mb 43f 48f
6:12 23 38 mph 993.6mb 43f 48f
6:06 29 40 mph 993.7mb 43f 48f
6:00 25 41 mph 993.8mb 43f 48f
5:36 22 36 mph 994mb 43f 48f
5:30 28 41 mph 994mb 43f 48f
5:24 28 45 mph 993.9mb 43f 48f
5:18 25 44 mph 993.9mb 43f 48f
5:12 24 44 mph 993.9mb 43f 48f
5:06 20 33 mph 994.1mb 43f 48f
5:00 21 34 mph 994.1mb 43f 48f
4:36 23 38 mph 994.5mb 43f 48f
4:30 29 43 mph 994.4mb 43f 48f
4:24 22 45 mph 994.6mb 43f 48f
4:18 23 41 mph 994.7mb 43f 48f
4:12 25 37 mph 994.8mb 43f 48f
4:06 24 39 mph 994.8mb 43f 48f
4:00 23 40 mph 995mb 43f 48f
3:36 26 43 mph 995.2mb 43f 47f
3:30 20 44 mph 995.4mb 43f 47f
3:24 24 40 mph 995.4mb 43f 47f
3:18 28 41 mph 995.3mb 43f 47f
3:12 22 36 mph 995.6mb 43f 47f
3:06 17 43 mph 995.8mb 43f 47f
3:00 22 36 mph 995.8mb 43f 47f
2:36 20 36 mph 996.5mb 43f 47f
2:30 18 32 mph 996.5mb 43f 47f
2:24 17 33 mph 996.6mb 43f 47f
2:18 18 28 mph 996.7mb 43f 47f
2:12 18 40 mph 997mb 43f 47f
2:06 18 33 mph 997.3mb 43f 47f
2:00 21 41 mph 997.4mb 43f 47f
1:36 13 31 mph 998.1mb 43f 47f
1:30 22 32 mph 998.4mb 43f 47f
1:24 18 29 mph 998.8mb 43f 46f
1:18 14 29 mph 999mb 43f 46f
1:12 18 33 mph 999.3mb 43f 46f
1:06 18 38 mph 999.6mb 43f 46f
1:00 20 34 mph 999.8mb 43f 46f
12:36 21 36 mph 1001mb 43f 46f
12:30 20 33 mph 1001.1mb 42f 46f
12:24 16 25 mph 1001.4mb 42f 46f
12:18 18 31 mph 1001.5mb 42f 46f
12:12 21 37 mph 1001.4mb 42f 46f
12:06 20 33 mph 1001.7mb 42f 46f
12:00 15 37 mph 1001.9mb 42f 46f
11:36 17 32 mph 1002.3mb 42f 46f
11:30 21 30 mph 1002.5mb 42f 46f
11:24 22 34 mph 1002.4mb 42f 46f
11:18 22 36 mph 1002.6mb 42f 46f
11:12 21 37 mph 1002.6mb 42f 46f
11:06 20 31 mph 1002.7mb 41f 46f
11:00 21 39 mph 1002.8mb 41f 46f
10:36 24 36 mph 1003mb 41f 46f
10:30 22 40 mph 1003mb 41f 46f
10:24 24 39 mph 1003mb 41f 46f
10:18 22 33 mph 1003.1mb 41f 46f
10:12 21 36 mph 1003.1mb 41f 46f
10:06 21 36 mph 1003mb 41f 46f
10:00 24 44 mph 1003.1mb 41f 46f
9:36 24 38 mph 1003.1mb 41f 46f
9:30 24 41 mph 1003.1mb 41f 46f
9:24 23 38 mph 1002.8mb 41f 45f
9:18 25 38 mph 1002.7mb 41f 45f
9:12 24 41 mph 1002.7mb 41f 45f
9:06 22 34 mph 1002.6mb 40f 45f
9:00 21 41 mph 1002.5mb 41f 45f
8:36 21 38 mph 1002.7mb 41f 45f
8:30 23 36 mph 1002.8mb 41f 45f
8:24 25 39 mph 1002.8mb 41f 45f
8:18 14 40 mph 1002.7mb 41f 45f
8:12 23 38 mph 1002.7mb 41f 45f
8:06 21 31 mph 1002.8mb 42f 45f
8:00 23 34 mph 1002.8mb 42f 45f
7:36 20 34 mph 1003mb 42f 45f
7:30 22 38 mph 1003mb 42f 45f
7:24 17 38 mph 1003mb 42f 45f
7:18 17 34 mph 1003.1mb 43f 45f
7:12 23 39 mph 1003mb 42f 45f
7:06 22 33 mph 1003.1mb 42f 45f
7:00 21 34 mph 1003.2mb 43f 45f
6:36 24 38 mph 1003.6mb 43f 45f
6:30 21 36 mph 1003.6mb 43f 45f
6:24 20 45 mph 1003.6mb 43f 45f
6:18 17 31 mph 1003.8mb 43f 45f
6:12 18 30 mph 1003.9mb 43f 45f
6:06 17 29 mph 1004.1mb 43f 45f
6:00 17 32 mph 1004.2mb 43f 45f
5:36 22 36 mph 1004.6mb 43f 45f
5:30 22 33 mph 1004.9mb 43f 46f
5:24 13 31 mph 1005.2mb 43f 46f
5:18 16 32 mph 1005.4mb 43f 46f
5:12 18 33 mph 1005.6mb 43f 46f
5:06 20 33 mph 1005.7mb 43f 46f
5:00 24 38 mph 1005.6mb 43f 46f
4:36 13 28 mph 1005.9mb 43f 46f
4:30 13 26 mph 1005.9mb 43f 46f
4:24 11 26 mph 1006mb 43f 46f
4:18 15 24 mph 1006.2mb 43f 46f
4:12 15 26 mph 1006.3mb 43f 46f
4:06 13 21 mph 1006.1mb 43f 46f
4:00 10 28 mph 1006.3mb 43f 47f
3:36 15 25 mph 1007.1mb 43f 47f
3:30 11 24 mph 1006.8mb 42f 47f
3:24 9 18 mph 1007.1mb 42f 47f
3:18 8 22 mph 1007.2mb 43f 47f
3:12 14 26 mph 1007mb 42f 47f
3:06 14 30 mph 1007.1mb 43f 48f
3:00 10 23 mph 1007.4mb 43f 49f
2:54 14 28 mph 1007.6mb 43f 49f
2:48 14 30 mph 1007.4mb 43f 50f
2:36 20 31 mph 1008.1mb 43f 50f
2:30 20 32 mph 1008.4mb 43f 50f
2:24 17 32 mph 1008.5mb 43f 50f
2:18 16 26 mph 1008.7mb 43f 49f
2:12 17 31 mph 1008.8mb 43f 49f
2:06 20 30 mph 1008.9mb 43f 50f
2:00 17 32 mph 1008.9mb 43f 49f
1:54 21 32 mph 1008.9mb 43f 49f
1:48 18 31 mph 1009.2mb 43f 49f
1:36 18 33 mph 1009.7mb 42f 49f
1:30 21 32 mph 1009.8mb 43f 49f
1:24 18 34 mph 1009.9mb 43f 49f
1:18 16 30 mph 1009.9mb 43f 50f
1:12 15 34 mph 1009.8mb 43f 51f
1:06 21 32 mph 1009.8mb 43f 52f
1:00 22 36 mph 1009.7mb 43f 52f
12:54 20 36 mph 1009.4mb 43f 52f
12:48 22 32 mph 1009.4mb 43f 52f
12:36 22 31 mph 1009.5mb 43f 52f
12:30 16 32 mph 1009.6mb 43f 52f
12:24 17 28 mph 1009.6mb 42f 52f
12:18 17 34 mph 1009.7mb 42f 53f
12:12 18 33 mph 1009.7mb 42f 53f
12:06 16 28 mph 1009.6mb 42f 53f
12:00 18 36 mph 1009.7mb 42f 53f
Seg 01/16 11:54 15 32 mph 1009.7mb 42f 54f
11:48 20 39 mph 1009.8mb 42f 54f
11:36 17 34 mph 1009.8mb 41f 54f
11:30 15 26 mph 1009.8mb 40f 54f
11:24 18 26 mph 1010mb 40f 54f
11:18 18 31 mph 1010mb 39f 53f
11:12 17 28 mph 1010.1mb 39f 53f
11:06 15 28 mph 1010.1mb 38f 53f
11:00 18 31 mph 1010.1mb 38f 53f
10:54 15 25 mph 1010.2mb 38f 54f
10:48 21 33 mph 1010.2mb 38f 53f
10:36 20 33 mph 1010.2mb 37f 53f
10:30 14 25 mph 1010.2mb 37f 53f
10:24 16 28 mph 1010.3mb 37f 53f
10:18 16 26 mph 1010.3mb 37f 53f
10:12 14 25 mph 1010.3mb 38f 53f
10:06 15 24 mph 1010.3mb 37f 53f
10:00 20 30 mph 1010.4mb 37f 53f
9:54 16 23 mph 1010.4mb 37f 53f
9:48 14 22 mph 1010.5mb 37f 53f
9:36 11 24 mph 1010.6mb 37f 53f
9:30 10 24 mph 1010.6mb 37f 53f
9:24 14 21 mph 1010.7mb 37f 53f
9:18 11 20 mph 1010.7mb 37f 53f
9:12 14 22 mph 1010.7mb 37f 52f
9:06 11 23 mph 1010.8mb 37f 53f
9:00 11 18 mph 1011.1mb 37f 52f
8:54 10 16 mph 1011.2mb 37f 52f
8:48 9 17 mph 1011.3mb 37f 52f
8:36 7 14 mph 1011.5mb 37f 51f
8:30 7 17 mph 1011.7mb 37f 50f
8:24 7 15 mph 1011.7mb 37f 50f
8:18 7 11 mph 1011.8mb 37f 49f
8:12 7 14 mph 1011.9mb 37f 50f
8:06 7 13 mph 1012.1mb 37f 49f
8:00 6 15 mph 1012.2mb 37f 49f
7:54 8 15 mph 1012.3mb 37f 49f
7:48 10 20 mph 1012.3mb 37f 49f
7:36 8 16 mph 1012.6mb 37f 49f
7:30 8 15 mph 1012.5mb 38f 49f
7:24 10 21 mph 1012.5mb 38f 48f
7:18 8 15 mph 1012.7mb 39f 48f
7:12 9 16 mph 1012.7mb 39f 48f
7:06 8 14 mph 1012.9mb 39f 47f
7:00 10 16 mph 1012.9mb 39f 47f
6:54 8 15 mph 1013.2mb 39f 47f
6:48 8 17 mph 1013.2mb 39f 47f
6:36 9 14 mph 1013.4mb 41f 46f
6:30 8 14 mph 1013.6mb 41f 46f
6:24 9 16 mph 1013.6mb 41f 46f
6:18 6 14 mph 1013.9mb 41f 46f
6:12 9 15 mph 1013.6mb 41f 46f
6:06 9 15 mph 1013.8mb 41f 46f
6:00 7 18 mph 1014mb 42f 45f
5:54 6 14 mph 1013.9mb 42f 45f
5:48 10 20 mph 1013.8mb 42f 46f
5:36 7 17 mph 1014.6mb 42f 47f
5:30 9 18 mph 1014.7mb 42f 48f
5:24 13 22 mph 1014.6mb 42f 48f
5:18 10 20 mph 1014.4mb 42f 49f
5:12 10 24 mph 1014.3mb 41f 50f
5:06 15 22 mph 1014.2mb 43f 51f
5:00 10 24 mph 1014.2mb 44f 52f
4:54 15 26 mph 1014.1mb 44f 52f
4:48 14 24 mph 1014.1mb 43f 52f
4:36 17 23 mph 1013.8mb 43f 52f
4:30 16 30 mph 1013.9mb 43f 52f
4:24 14 24 mph 1013.9mb 44f 52f
4:18 14 24 mph 1014mb 43f 51f
4:12 16 28 mph 1014mb 44f 51f
4:06 16 22 mph 1014mb 43f 50f
4:00 17 26 mph 1014mb 43f 50f
3:36 8 20 mph 1013.5mb 43f 51f
3:30 7 15 mph 1013.4mb 43f 51f
3:24 10 14 mph 1013.4mb 43f 51f
3:18 10 17 mph 1013.7mb 43f 51f
3:12 8 17 mph 1013.9mb 43f 51f
3:06 10 17 mph 1013.9mb 43f 52f
3:00 13 22 mph 1014.1mb 43f 52f
2:54 17 22 mph 1014.1mb 43f 52f
2:48 14 20 mph 1014.3mb 43f 51f
2:36 9 21 mph 1014.7mb 43f 50f
2:30 10 16 mph 1014.7mb 43f 49f
2:24 9 18 mph 1015mb 43f 48f
2:18 13 17 mph 1015mb 43f 51f
2:12 9 15 mph 1015mb 43f 51f
2:06 9 16 mph 1014.8mb 43f 50f
2:00 7 13 mph 1014.7mb 43f 50f
1:54 7 16 mph 1014.9mb 43f 49f
1:48 9 16 mph 1015.3mb 43f 50f
1:36 9 18 mph 1015.6mb 43f 50f
1:30 10 18 mph 1015.7mb 43f 50f
1:24 8 18 mph 1016mb 43f 49f
1:18 11 15 mph 1016.3mb 43f 49f
1:12 11 17 mph 1016.4mb 43f 49f
1:06 8 14 mph 1016.4mb 43f 49f
1:00 11 18 mph 1016.6mb 43f 49f
12:54 8 20 mph 1016.6mb 43f 49f
12:48 9 21 mph 1016.9mb 43f 49f
12:36 11 21 mph 1017mb 43f 49f
12:30 13 18 mph 1017.1mb 43f 49f
12:24 11 17 mph 1017mb 43f 48f
12:18 9 22 mph 1017.1mb 43f 49f
12:12 10 20 mph 1017.1mb 43f 49f
12:06 10 21 mph 1017.1mb 43f 48f
12:00 7 16 mph 1017.4mb 43f 48f
11:54 11 18 mph 1017.8mb 43f 48f
11:48 9 15 mph 1018.3mb 43f 48f
11:36 9 15 mph 1018.4mb 43f 48f
11:30 10 17 mph 1018.6mb 43f 48f
11:24 10 18 mph 1018.5mb 43f 47f
11:18 9 20 mph 1018.5mb 42f 47f
11:12 8 15 mph 1018.5mb 42f 47f
11:06 8 13 mph 1018.5mb 41f 46f
11:00 7 15 mph 1018.5mb 41f 46f
10:54 8 14 mph 1018.7mb 41f 46f
10:48 8 14 mph 1018.8mb 41f 46f
10:36 7 15 mph 1019mb 40f 44f
10:30 6 13 mph 1019.1mb 40f 43f
10:24 6 8 mph 1019.2mb 39f 42f
10:18 5 7 mph 1019.3mb 39f 41f
10:12 5 8 mph 1019.4mb 38f 40f
10:06 7 8 mph 1019.2mb 37f 39f
10:00 7 9 mph 1019.4mb 37f 39f
9:54 6 8 mph 1019.6mb 36f 39f
9:48 6 7 mph 1019.5mb 36f 38f
9:36 7 9 mph 1019.4mb 35f 38f
9:30 7 9 mph 1019.4mb 35f 38f
9:24 6 11 mph 1019.6mb 35f 38f
9:18 9 11 mph 1019.5mb 35f 37f
9:12 8 10 mph 1019.6mb 35f 37f
9:06 6 9 mph 1019.6mb 35f 37f
9:00 7 9 mph 1019.9mb 34f 37f
8:54 7 10 mph 1020.1mb 35f 37f
8:48 8 9 mph 1020.1mb 35f 36f
8:36 6 7 mph 1020.4mb 35f 37f
8:30 6 8 mph 1020.3mb 35f 36f
8:24 6 8 mph 1020.3mb 35f 37f
8:18 7 9 mph 1020.1mb 35f 37f
8:12 6 7 mph 1020.1mb 35f 37f
8:06 6 9 mph 1020.2mb 35f 37f
8:00 6 13 mph 1020mb 36f 37f
7:54 6 13 mph 1019.6mb 36f 37f
7:48 6 11 mph 1019.7mb 38f 36f
7:36 6 7 mph 1020.4mb 39f 36f
7:30 5 8 mph 1020.4mb 39f 36f
7:24 7 10 mph 1020.4mb 40f 36f
7:18 7 9 mph 1020.5mb 40f 36f
7:12 7 9 mph 1020.6mb 39f 35f
7:06 6 9 mph 1020.6mb 40f 35f
7:00 6 9 mph 1020.4mb 41f 35f
6:54 7 10 mph 1020.4mb 41f 35f
6:48 6 10 mph 1020.5mb 40f 35f
6:36 8 11 mph 1020.3mb 41f 35f
6:30 6 8 mph 1020.6mb 41f 35f
6:24 6 7 mph 1020.7mb 41f 35f
6:18 5 7 mph 1020.9mb 42f 35f
6:12 6 7 mph 1021mb 42f 35f
6:06 5 7 mph 1021.1mb 41f 35f
6:00 6 8 mph 1021.2mb 42f 36f
5:54 6 8 mph 1021.5mb 41f 36f
5:48 6 7 mph 1021.7mb 42f 35f
5:36 5 8 mph 1021.6mb 42f 35f
5:30 6 8 mph 1021.5mb 42f 35f
5:24 5 7 mph 1021.7mb 42f 35f
5:18 5 7 mph 1021.9mb 42f 35f
5:12 6 7 mph 1021.9mb 42f 35f
5:06 6 9 mph 1021.8mb 42f 35f
5:00 5 9 mph 1021.7mb 42f 35f
4:54 8 9 mph 1021.6mb 42f 35f
4:48 6 9 mph 1021.7mb 42f 35f
4:36 7 9 mph 1022.2mb 42f 35f
4:30 7 8 mph 1022.3mb 42f 34f
4:24 7 8 mph 1022.3mb 42f 35f
4:18 7 9 mph 1022.3mb 42f 35f
4:12 6 11 mph 1022.1mb 42f 35f
4:06 8 11 mph 1022.1mb 42f 34f
4:00 8 9 mph 1022.2mb 42f 34f
3:54 7 9 mph 1022.4mb 42f 34f
3:48 6 9 mph 1022.7mb 42f 34f
3:36 8 10 mph 1022.7mb 42f 34f
3:30 8 9 mph 1022.9mb 42f 35f
3:24 7 9 mph 1023.1mb 42f 35f
3:18 7 9 mph 1023.1mb 42f 35f
3:12 6 10 mph 1023.2mb 42f 35f
3:06 8 11 mph 1023.2mb 42f 35f
3:00 6 9 mph 1023.4mb 42f 35f
2:54 7 9 mph 1023.4mb 42f 35f
2:48 7 9 mph 1023.5mb 42f 35f
2:36 7 8 mph 1024mb 42f 35f
2:30 6 8 mph 1024mb 41f 35f
2:24 6 8 mph 1024mb 42f 36f
2:18 6 8 mph 1024.1mb 42f 36f
2:12 6 7 mph 1024.1mb 42f 36f
2:06 3 7 mph 1024.2mb 42f 35f
2:00 5 6 mph 1024.2mb 42f 36f
1:54 3 6 mph 1024.1mb 40f 36f
1:48 6 7 mph 1023.8mb 40f 36f
1:36 6
mph
1023.6mb 40f 36f
1:30 6
mph
1023.6mb 40f 35f
1:24 3 5 mph 1023.5mb 40f 35f
1:18 1 3 mph 1023.5mb 40f 36f
1:12 2 3 mph 1023.5mb 40f 37f
1:06 2 3 mph 1023.6mb 40f 36f
1:00  -  2 mph 1023.3mb 40f 38f
12:54 3 6 mph 1023.2mb 40f 37f
12:48 6 8 mph 1023.2mb 40f 37f
12:36 7 8 mph 1023.2mb 40f 36f
12:30 5 11 mph 1023.1mb 40f 36f
12:24 8 14 mph 1022.8mb 40f 36f
12:18 10 13 mph 1022.8mb 39f 35f
12:12 10 14 mph 1022.9mb 39f 35f
12:06 9 15 mph 1023mb 38f 35f
12:00 10 15 mph 1023.2mb 38f 35f
Dom 01/15 11:54 8 13 mph 1023.3mb 38f 35f
11:48 9 14 mph 1023.6mb 38f 35f
11:36 8 13 mph 1023.5mb 37f 35f
11:30 8 11 mph 1023.6mb 36f 35f
11:24 7 9 mph 1023.8mb 36f 35f
11:18 6 8 mph 1023.9mb 35f 35f
11:12 7 10 mph 1023.9mb 34f 35f
11:06 7 9 mph 1024mb 34f 35f
11:00 7 8 mph 1024mb 34f 34f
10:54 3 6 mph 1024.1mb 34f 35f
10:48 5 9 mph 1024.3mb - 35f
10:36 8 10 mph 1024.1mb - 35f
10:30 7 9 mph 1024mb - 35f
10:24 7 10 mph 1024.1mb - 35f
10:18 7 10 mph 1024.3mb - 35f
10:12 9 10 mph 1024.5mb - 35f
10:06 9 10 mph 1024.6mb - 35f
10:00 8 11 mph 1024.6mb - 35f
9:54 9 11 mph 1024.5mb - 35f
9:48 8 10 mph 1024.8mb - 35f
9:36 8 13 mph 1024.9mb 34f 35f
9:30 8 10 mph 1024.9mb 34f 35f
9:24 8 10 mph 1025mb 34f 35f
9:18 7 8 mph 1025.1mb 34f 35f
9:12 8 10 mph 1025.2mb 34f 35f
9:06 6 10 mph 1025.3mb 34f 35f
9:00 8 10 mph 1025.2mb 34f 35f
8:54 8 10 mph 1025.3mb 34f 35f
8:48 8 11 mph 1025.2mb 34f 35f
8:36 8 11 mph 1025mb 34f 35f
8:30 7 9 mph 1025.3mb 34f 36f
8:24 7 9 mph 1025.4mb 34f 35f
8:18 7 9 mph 1025.5mb 34f 35f
8:12 8 9 mph 1025.3mb 34f 35f
8:06 7 9 mph 1025.1mb 34f 35f
8:00 7 9 mph 1025mb 34f 35f
7:54 8 9 mph 1024.9mb 35f 35f
7:48 7 8 mph 1024.7mb 35f 35f
7:36 8 10 mph 1024.6mb 35f 35f
7:30 6 8 mph 1024.7mb 35f 35f
7:24 6 8 mph 1024.7mb 35f 36f
7:18 6
mph
1024.9mb 36f 35f
7:12 5
mph
1025.1mb 36f 36f
7:06 3
mph
1025.2mb 36f 35f
7:00  -  1 mph 1025.2mb 36f 35f
6:54 1 5 mph 1025.1mb 36f 36f
6:48 5 6 mph 1024.8mb 36f 37f
6:36 2 3 mph 1025mb 37f 37f
6:30 1
mph
1025.2mb 37f 36f
6:24  -  2 mph 1024.9mb 37f 36f
6:18  -  5 mph 1024.5mb 37f 37f
6:12 3 5 mph 1024.3mb 37f 37f
6:06 5
mph
1024mb 37f 36f
6:00 3 5 mph 1024mb 38f 35f
5:54 3 5 mph 1024mb 38f 36f
5:48 2
mph
1024.1mb 38f 37f
5:36 1 3 mph 1024.1mb 39f 36f
5:30 2
mph
1024.2mb 40f 36f
5:24  -  1 mph 1024.1mb 40f 36f
5:18  -  1 mph 1024mb 40f 37f
5:12  -  1 mph 1024.1mb 40f 37f
5:06  -  1 mph 1024.1mb 41f 37f
5:00  -  1 mph 1024.1mb 41f 38f
4:54  -  2 mph 1024.1mb 41f 39f
4:48 2
mph
1024.1mb 41f 39f
4:36  -  2 mph 1024.3mb 41f 40f
4:30 1 2 mph 1024.2mb 41f 40f
4:24  -  2 mph 1024.2mb 41f 41f
4:18  -  2 mph 1024.3mb 41f 42f
4:12 2
mph
1024.2mb 41f 42f
4:06  -  6 mph 1024.4mb 41f 42f
4:00 1 3 mph 1024.3mb 41f 43f
3:54 3 5 mph 1024.9mb 41f 43f
3:48 5
mph
1025mb 41f 43f
3:36 3 5 mph 1025.2mb 41f 43f
3:30 5 6 mph 1025.2mb 41f 43f
3:24 6
mph
1025.3mb 41f 43f
3:18 6 7 mph 1025.3mb 41f 43f
3:12 7 8 mph 1025.5mb 42f 43f
3:06 7 8 mph 1025.3mb 41f 43f
3:00 6 7 mph 1025.3mb 41f 43f
2:54 7 8 mph 1025.3mb 41f 43f
2:48 6 7 mph 1025.1mb 41f 43f
2:36 6 7 mph 1025.1mb 42f 43f
2:30 6 8 mph 1025.1mb 41f 43f
2:24 6 8 mph 1025.1mb 41f 43f
2:18 6 8 mph 1025.2mb 41f 43f
2:12 7 8 mph 1025mb 41f 43f
2:06 6 7 mph 1024.9mb 40f 43f
2:00 6
mph
1024.8mb 42f 43f
1:54 6 7 mph 1024.7mb 41f 43f
1:48 6 7 mph 1024.8mb 42f 43f
1:36 6 7 mph 1025mb 41f 42f
1:30 6
mph
1024.9mb 41f 42f
1:24 6 7 mph 1025mb 41f 42f
1:18 5 6 mph 1025.2mb 42f 42f
1:12 3 5 mph 1025.2mb 41f 42f
1:06 5 6 mph 1025.4mb 42f 42f
1:00 6 7 mph 1025.5mb 42f 42f
12:54 5 6 mph 1025.6mb 43f 42f
12:48 5 6 mph 1025.6mb 43f 42f
12:36 3 5 mph 1025.7mb 43f 42f
12:30 3
mph
1025.6mb 43f 43f
12:24 2 3 mph 1025.6mb 43f 43f
12:18  -  3 mph 1025.6mb 43f 42f
12:12 2 5 mph 1025.4mb 43f 42f
12:06 3 5 mph 1025.5mb 42f 41f
12:00 3 6 mph 1025.5mb 43f 40f
11:54 5 6 mph 1025.5mb 43f 40f
11:48 5 8 mph 1025.6mb 43f 39f
11:36 6 7 mph 1025.7mb 42f 38f
11:30 6 8 mph 1025.7mb 42f 38f
11:24 6 7 mph 1025.7mb 42f 37f
11:18 7 8 mph 1025.8mb 42f 37f
11:12 6 8 mph 1025.8mb 42f 36f
11:06 7 8 mph 1025.8mb 43f 36f
11:00 7 9 mph 1025.9mb 43f 35f
10:54 6 8 mph 1026mb 43f 35f
10:48 8
mph
1026.2mb 41f 34f
10:36 7 10 mph 1026.1mb 42f 34f
10:30 8 10 mph 1026.1mb 42f 33f
10:24 8 10 mph 1026.1mb 42f 33f
10:18 8 10 mph 1026.2mb 42f 33f
10:12 8 10 mph 1026.2mb 42f 32f
10:06 7 10 mph 1026.2mb 41f 32f
10:00 8 9 mph 1026.2mb 40f 31f
9:54 7 9 mph 1026.2mb 39f 31f
9:48 8 10 mph 1026.1mb 40f 30f
9:36 9 11 mph 1025.6mb 38f 30f
9:30 9 10 mph 1025.6mb 38f 29f
9:24 8 11 mph 1025.8mb 37f 29f
9:18 9 10 mph 1025.7mb 36f 29f
9:12 8 11 mph 1025.5mb 35f 29f
9:06 9 11 mph 1025.5mb 34f 29f
9:00 9 10 mph 1025.5mb 35f 29f
8:54 8 11 mph 1025.5mb 35f 28f
8:48 8 10 mph 1025.5mb 35f 28f
8:36 8 11 mph 1025.5mb 36f 28f
8:30 9 13 mph 1025.5mb 36f 28f
8:24 9 11 mph 1025.5mb 36f 28f
8:18 9 11 mph 1025.4mb 36f 28f
8:12 9 11 mph 1025.4mb 34f 28f
8:06 9 11 mph 1025.3mb - 28f
8:00 9 11 mph 1025.2mb - 28f
7:54 9 11 mph 1025.2mb 34f 28f
7:48 9 13 mph 1025.3mb - 28f
7:36 9 11 mph 1025.3mb 34f 28f
7:30 8 11 mph 1025.3mb 34f 28f
7:24 8 10 mph 1025.3mb 34f 28f
7:18 9 11 mph 1025.2mb 34f 28f
7:12 9 11 mph 1025.4mb 35f 28f
7:06 8 11 mph 1025.5mb 35f 29f
7:00 9 11 mph 1025.5mb 36f 28f
6:54 9 11 mph 1025.5mb 36f 28f
6:48 9 10 mph 1025.4mb 37f 28f
6:36 9 11 mph 1025.4mb 38f 29f
6:30 9 11 mph 1025.4mb 39f 28f
6:24 8 10 mph 1025.3mb 39f 28f
6:18 9 13 mph 1025.3mb 40f 29f
6:12 9 11 mph 1025.3mb 40f 29f
6:06 8 11 mph 1025.4mb 40f 29f
6:00 9 10 mph 1025.3mb 40f 29f
5:36 8 10 mph 1025.3mb 41f 29f
5:30 7 11 mph 1025.4mb 41f 30f
5:24 8 10 mph 1025.5mb 41f 30f
5:18 9 10 mph 1025.6mb 41f 30f
5:12 8 10 mph 1025.6mb 41f 30f
5:06 6 9 mph 1025.6mb 41f 29f
5:00 7 10 mph 1025.6mb 41f 30f
4:54 8 10 mph 1025.5mb 41f 29f
4:48 9 11 mph 1025.5mb 41f 30f
4:36 7 11 mph 1025.4mb 41f 30f
4:30 9 11 mph 1025.5mb 41f 30f
4:24 8 10 mph 1025.6mb 41f 30f
4:18 9 11 mph 1025.6mb 41f 30f
4:12 9 13 mph 1025.7mb 41f 30f
4:06 10 13 mph 1025.8mb 41f 30f
4:00 9 11 mph 1025.8mb 41f 30f
3:54 7 10 mph 1025.9mb 41f 30f
3:48 8 10 mph 1025.8mb 41f 30f
3:36 9 11 mph 1025.9mb 41f 31f
3:30 8 11 mph 1026.1mb 41f 31f
3:24 8 10 mph 1026.1mb 42f 31f
3:18 8 10 mph 1026.2mb 42f 31f
3:12 8 10 mph 1026.2mb 42f 31f
3:06 8
mph
1026.2mb 42f 31f
3:00 7 9 mph 1026mb 42f 31f
2:54 6 8 mph 1026.1mb 41f 32f
2:48 6 7 mph 1026.1mb 41f 31f
2:36 6 7 mph 1026mb 42f 32f
2:30 6 8 mph 1025.8mb 42f 32f
2:24 5 6 mph 1025.8mb 41f 32f
2:18 3 6 mph 1025.9mb 42f 32f
2:12 3 7 mph 1025.7mb 41f 32f
2:06 7 9 mph 1025.6mb 42f 32f
2:00 8 10 mph 1025.5mb 41f 32f
1:54 8 10 mph 1025.3mb 41f 32f
1:48 9 11 mph 1025.2mb 41f 32f
1:36 8 11 mph 1024.9mb 41f 32f
1:30 9 11 mph 1024.9mb 41f 32f
1:24 10 13 mph 1024.9mb 41f 33f
1:18 9 13 mph 1024.9mb 41f 33f
1:12 9 11 mph 1024.9mb 41f 33f
1:06 8 11 mph 1025mb 41f 33f
1:00 9 13 mph 1024.9mb 41f 32f
12:54 8 10 mph 1024.9mb 41f 32f
12:48 8 10 mph 1025mb 41f 32f
12:36 8 10 mph 1025.3mb 41f 32f
12:30 9 11 mph 1025.3mb 41f 32f
12:24 9 11 mph 1025.2mb 41f 32f
12:18 8 10 mph 1025mb 41f 32f
12:12 9 11 mph 1025mb 41f 32f
12:06 9 13 mph 1025mb 41f 32f
12:00 9 11 mph 1025mb 41f 32f
Sáb 01/14 11:54 10 11 mph 1025mb 41f 32f
11:48 10 13 mph 1025.1mb 40f 32f
11:36 9 10 mph 1024.9mb 41f 32f
11:30 8 11 mph 1024.9mb 41f 32f
11:24 9 11 mph 1025mb 40f 32f
11:18 9 13 mph 1024.9mb 40f 32f
11:12 9 13 mph 1024.9mb 40f 32f
11:06 9 11 mph 1025mb 39f 32f
11:00 10 11 mph 1024.9mb 39f 32f
10:54 9 11 mph 1024.7mb 38f 32f
10:48 10 13 mph 1024.5mb 38f 32f
10:36 11 14 mph 1024.5mb 36f 32f
10:30 10 14 mph 1024.6mb 35f 32f
10:24 9 13 mph 1024.6mb 34f 32f
10:18 9 13 mph 1024.6mb 34f 32f
10:12 9 13 mph 1024.6mb 34f 32f
10:06 9 11 mph 1024.6mb 34f 32f
10:00 10 13 mph 1024.7mb 34f 32f
9:54 9 11 mph 1024.7mb 34f 32f
9:48 9 13 mph 1024.7mb 34f 32f
9:36 10 13 mph 1024.6mb 34f 32f
9:30 11 13 mph 1024.6mb 34f 32f
9:24 10 13 mph 1024.7mb 34f 32f
9:18 10 14 mph 1024.7mb 34f 32f
9:12 10 14 mph 1024.7mb 34f 32f
9:06 10 13 mph 1024.7mb 34f 32f
9:00 10 14 mph 1024.9mb 34f 32f
8:54 10 13 mph 1024.8mb 34f 32f
8:48 10 13 mph 1024.8mb 34f 32f
8:36 9 13 mph 1024.8mb 34f 33f
8:30 9 14 mph 1024.9mb 34f 33f
8:24 10 14 mph 1024.9mb 34f 33f
8:18 10 11 mph 1024.9mb 34f 33f
8:12 9 13 mph 1024.8mb 34f 33f
8:06 9 14 mph 1024.8mb 34f 33f
8:00 9 13 mph 1024.7mb 34f 33f
7:54 11 14 mph 1024.6mb 35f 33f
7:48 10 13 mph 1024.6mb 34f 33f
7:36 10 14 mph 1024.5mb 35f 33f
7:30 9 11 mph 1024.6mb 34f 33f
7:24 9 13 mph 1024.5mb 34f 33f
7:18 10 13 mph 1024.5mb 35f 33f
7:12 11 13 mph 1024.5mb 35f 33f
7:06 10 13 mph 1024.5mb 35f 33f
7:00 10 13 mph 1024.6mb 35f 33f
6:54 10 13 mph 1024.6mb 35f 33f
6:48 10 14 mph 1024.6mb 35f 33f
6:36 7 10 mph 1024.6mb 35f 33f
6:30 5 8 mph 1024.7mb 35f 33f
6:24 5 8 mph 1024.8mb 34f 33f
6:18 6
mph
1024.8mb 34f 34f
6:12 5 6 mph 1024.8mb 35f 36f
6:06 5 7 mph 1024.8mb 35f 35f
6:00 6 7 mph 1024.9mb 35f 35f
5:54 5 6 mph 1024.9mb 35f 35f
5:48 3 5 mph 1024.9mb 36f 33f
5:36 3 5 mph 1024.7mb 36f 36f
5:30 3
mph
1024.7mb 36f 36f
5:24 3
mph
1024.7mb 37f 35f
5:18 2 3 mph 1024.8mb 37f 36f
5:12 2 3 mph 1024.8mb 38f 36f
5:06  -  2 mph 1024.8mb 39f 38f
5:00 2 3 mph 1024.7mb 39f 37f
4:54 2
mph
1024.7mb 40f 37f
4:48 1 2 mph 1024.7mb 40f 37f
4:36 1 2 mph 1024.6mb 40f 38f
4:30 2
mph
1024.6mb 40f 38f
4:24 1
mph
1024.6mb 41f 38f
4:18 1 2 mph 1024.6mb 40f 39f
4:12 1 2 mph 1024.5mb 41f 40f
4:06  -  1 mph 1024.6mb 40f 41f
4:00 1
mph
1024.6mb 40f 41f
3:54 1
mph
1024.7mb 40f 41f
3:48  -  1 mph 1024.8mb 40f 42f
3:36 2
mph
1024.8mb 41f 42f
3:30  -  1 mph 1024.7mb 40f 42f
3:24 1 2 mph 1024.7mb 41f 42f
3:18 1 2 mph 1024.7mb 41f 42f
3:12  -  1 mph 1024.6mb 41f 42f
3:06  -  mph 1024.6mb 41f 42f
3:00  -  1 mph 1024.7mb 41f 42f
2:54 1 2 mph 1024.7mb 41f 42f
2:48 2
mph
1024.7mb 41f 42f
2:36  -  1 mph 1024.8mb 41f 42f
2:30  -  2 mph 1024.8mb 41f 42f
2:24 2 3 mph 1025.1mb 41f 42f
2:18 2 5 mph 1025mb 41f 42f
2:12 3 6 mph 1025mb 41f 41f
2:06 5 6 mph 1025.1mb 41f 41f
2:00 6
mph
1025.3mb 41f 41f
1:54 6 7 mph 1025.3mb 42f 41f
1:48 6
mph
1025.3mb 42f 40f
1:36 6
mph
1025.4mb 42f 40f
1:30 5 7 mph 1025.3mb 42f 40f
1:24 6 7 mph 1025.5mb 42f 40f
1:18 7 8 mph 1025.6mb 42f 40f
1:12 7 8 mph 1025.7mb 42f 40f
1:06 6 7 mph 1025.8mb 43f 40f
1:00 5 6 mph 1025.7mb 43f 40f
12:54 6
mph
1025.7mb 43f 42f
12:48 2 5 mph 1025.8mb 43f 41f
12:36 1
mph
1026.1mb 43f 41f
12:30  -  2 mph 1026.1mb 42f 41f
12:24 1 2 mph 1026.2mb 42f 40f
12:18 2 3 mph 1026.4mb 42f 40f
12:12 2 3 mph 1026.5mb 42f 40f
12:06 2 3 mph 1026.6mb 43f 39f
12:00 1 6 mph 1026.8mb 42f 39f